Uitslag Triatlon Mechelen top 3

# Naam Totaal
1 Verhaegen Jarne 01:01:01 87.74
2 Lambrechts Adam 01:01:58 85.61
3 De Wachter Jonas 01:01:59 85.59
4 Hernaert Antonio 01:02:36 84.99
5 Van Caethoven Charlo 01:02:54 84.69
6 Wera Joachim 01:03:04 84.53
7 Olaria Terrence 01:03:05 84.51
8 Dewitte Lowie 01:03:07 84.48
9 Vos Yannick 01:03:21 84.25
10 Kwaaitaal Rob 01:04:12 83.41
11 Baeyens Lars 01:04:45 82.87
12 Vanhoutte Witze 01:05:17 82.35
13 Verboven Yorben 01:05:25 82.22
14 Peeters Benny 01:06:33 81.11
15 Heemeryck Sander 01:06:34 81.09
16 Van Pelt Matthias 01:07:05 80.58
17 Van Bogaert Bert 01:07:06 80.57
18 Verbelen Arno 01:07:22 80.31
19 Lormans Jesse 01:07:27 80.22
20 Van Breedam Jonas 01:07:41 79.99
21 Verstappen Gill 01:07:57 79.73
22 Peeters Peter 01:07:59 79.70
23 Van Haverbeke Arno 01:08:02 79.65
24 Goedhart Gert 01:08:18 79.39
25 De Bent Johan 01:08:27 79.24
26 Van Verdegem Arne 01:08:38 79.06
27 De Jaegere Jari 01:08:49 78.88
28 Van Dingenen Sam 01:08:50 78.87
29 Slootmans Ian 01:08:58 78.73
30 Vercarre Jurgen 01:09:16 78.44
31 De Buyser Wim 01:09:27 78.26
32 Nuyes Kirsten 01:09:31 78.89
33 Cavents Ruben 01:09:36 78.11
34 Mampaey Jo 01:09:39 78.06
35 Reynders Brecht 01:09:40 78.05
36 De Vet Hanne 01:09:56 77.39
37 Hauwaerts Dieter 01:10:06 77.62
38 Hernaert Emilio 01:10:10 77.56
39 Lauwers Peter 01:10:31 77.21
40 Lesage Janik 01:11:15 76.49
41 Billet Stefan 01:11:16 76.48
42 Van Der Auwera Jos 01:11:58 75.79
43 Claus Karlien 01:12:03 75.84
44 Sander Hartmut 01:12:05 75.68
45 Van Houteghem Frankie 01:12:46 75.00
46 Kranenborg Herke 01:13:03 74.73
47 Van Pelt Guy 01:13:08 74.64
48 De Vos Ruben 01:13:14 74.55
49 De Wulf Lars 01:13:15 74.53
50 Robberechts Ruben 01:13:18 74.48
51 Juliens Edwin 01:13:20 74.45
52 Verhenne Fabian 01:13:25 74.37
53 Bruffaerts Stefaan 01:13:40 74.12
54 De Decker Jelle 01:13:43 74.07
55 Bruggeman Brecht 01:14:04 73.73
56 Vleminx Kevin 01:14:07 73.68
57 Laureys Steven 01:14:32 73.27
58 Convens Bryan 01:15:12 72.62
59 Verlinden Jessica 01:15:31 73.31
60 Imbo Kristel 01:15:36 73.25
61 Dierickx Koen 01:15:41 72.14
62 Vanlerberghe Aaron 01:15:53 71.94
63 Govaert Thomas 01:16:05 71.75
64 Servranckx Ruben 01:16:21 71.49
65 Steenackers Thomas 01:16:25 71.42
66 Hult Astrid 01:16:27 72.63
67 De Smedt Eline 01:16:31 72.58
68 Van Woensel Joachim 01:16:38 71.21
69 Vanlerberghe Jozua 01:16:59 70.86
70 Eggermont Pieter 01:17:01 70.83
71 Mussche Peter 01:17:08 70.72
72 Verhulst Jan 01:17:11 70.67
73 Mertens Thijs 01:17:13 70.64
74 Verhagen Frederick 01:17:47 70.08
75 Beynaerts Jessy 01:17:58 71.52
76 Goris Bart 01:17:59 69.88
77 De Gang Niels 01:18:04 69.80
78 D'hooge Ben 01:18:14 69.64
79 Vos Steven 01:18:17 69.59
80 Danckaerts Wesley 01:18:20 69.54
81 Van Steenkiste Wim 01:18:22 69.51
82 Delforge Angelo 01:18:25 69.46
83 Van Tulder Koen 01:18:38 69.24
84 Vandereyken Peter 01:18:53 69.00
85 De Gang Jochen 01:18:55 68.97
86 Devalckeneer Ann 01:18:57 70.80
87 Gielis Hans 01:19:00 68.88
88 Demares Ben 01:19:10 68.72
89 Belasri Hachemi 01:19:18 68.59
90 Scheefhals Anthony 01:19:19 68.57
91 Duvielguerbigny Arnaud 01:19:44 68.16
92 Sluyts Filip 01:19:45 68.15
93 Balis Sven 01:19:51 68.05
94 Smet Sarah 01:19:55 70.10
95 Van Loock Dave 01:19:57 67.95
96 Soens Sander 01:19:59 67.92
97 Van Handenhove Jurgen 01:20:05 67.82
98 Beullens Kris 01:20:22 67.54
99 Vermeire Cédric 01:20:31 67.40
100 Geldof Barthelemy 01:20:32 67.38
101 Tineke Tempelaere 01:20:36 69.60
102 Van Den Hecke Marc 01:20:43 67.20
103 Patrick Beeckman 01:20:44 67.18
104 Coremans Jorren 01:20:51 67.07
105 Gouweloose Wietse 01:21:09 66.77
106 Thys Klaas 01:21:24 66.53
107 Van Den Dorpe Emma 01:21:27 68.98
108 Nolmans Wim 01:21:27 66.48
109 Magriet Karl 01:21:31 66.41
110 Tack Gael 01:21:32 66.40
111 Van Hoorebeke Alain 01:21:35 66.35
112 Bogaert Ellen 01:21:36 68.87
113 Versluis Govert 01:21:42 66.23
114 Baube Mario 01:21:55 66.02
115 Schietse Simon 01:21:57 65.99
116 Kornas Jordy 01:21:58 65.97
117 Wim Troost 01:22:24 65.55
118 Bex Tine 01:22:25 68.27
119 De Sitter Jim 01:22:31 65.43
120 Mertens Conan 01:22:32 65.42
121 Moreau Rene 01:22:35 65.37
122 Van Stappen Chris 01:22:36 65.35
123 Michiels Domien 01:22:39 65.30
124 Wullens Simon 01:22:48 65.15
125 De Vocht Walter 01:22:54 65.06
126 Torbeyns Jo 01:22:55 65.04
127 Doms Gino 01:23:30 64.47
128 Van Dessel Kathleen 01:23:33 67.44
129 Farr Sarah 01:23:44 67.31
130 Vermaerke Pieter 01:23:44 64.24
131 Vanhooren Charlotte 01:23:48 67.26
132 Van Acker Timothy 01:23:50 64.14
133 Defever Stefaan 01:23:57 64.02
134 Meeuws Kevin 01:24:02 63.94
135 Schoofs Dries 01:24:09 63.83
136 Daelemans Sandra 01:24:12 66.97
137 Vanden Bussche Ingrid 01:24:14 66.95
138 Van Echelpoel Roxanne 01:24:17 66.91
139 Symons Debbie 01:24:18 66.90
140 Buysse Hans 01:24:20 63.65
141 Claes Tom 01:24:22 63.62
142 Zuazu Vela Gregorio 01:24:29 63.50
143 Keymolen Inge 01:24:33 66.71
144 Mertens Staf 01:24:33 63.44
145 Dequinnemaere Philippe 01:24:37 63.37
146 Janssens Erik 01:24:38 63.35
147 Vermeiren Joost 01:24:39 63.34
148 Vanobbergen Lies 01:24:40 66.63
149 Ghijselinck Christophe 01:24:55 63.08
150 De Smet Jef 01:24:59 63.01
151 Van De Gender Steven 01:25:13 62.78
152 Van Lee Tom 01:25:14 62.76
153 Cop Erik 01:25:16 62.73
154 Lybeer David 01:25:25 62.58
155 Meeussen Peter 01:25:27 62.55
156 Aerts Barbara 01:25:28 66.04
157 Cattoir Tony 01:25:43 62.29
158 Andries Jaime 01:25:45 62.26
159 Maes Wim 01:25:53 62.13
160 Vermeiren Karel 01:26:10 61.85
161 Hermans Chris 01:26:13 61.80
162 Van Gaever Raymond 01:26:16 61.75
163 Vandevelde Marlies 01:26:30 65.29
164 Cleeren Frank 01:26:31 61.51
165 Rits Frank 01:26:43 61.31
166 Pinsart Luc 01:27:28 60.57
167 Vandermeersch Margot 01:27:38 64.46
168 Selderslaghs Fien 01:27:42 64.41
169 Van Kerrebrouck Jurgen 01:27:43 60.33
170 Debrabander Sylvia 01:27:48 64.34
171 Frederickx Wout 01:27:49 60.23
172 Derreveaux Maxim 01:28:07 59.93
173 Aerts Hanna 01:28:12 64.05
174 Daelemans Wout 01:28:12 59.85
175 Mertens Clarina 01:28:16 64.00
176 Serroels Mathieu 01:28:26 59.62
177 Jaspers Ina 01:28:27 63.87
178 Crauwels Jonathan 01:28:32 59.53
179 Cloet Olivier 01:28:39 59.41
180 Cauwenbergh Marijke 01:28:58 63.49
181 Borremans Maarten 01:29:05 58.99
182 Pauwels Bjorn 01:29:06 58.97
183 Aertgeerts Bjorn 01:29:21 58.72
184 Van Biesen Andy 01:29:30 58.58
185 Van Hamme Silke 01:29:31 63.09
186 Dobbeni Mia 01:29:32 63.08
187 Nolmans Ilse 01:29:37 63.01
188 Croonenborghs Michaël 01:29:42 58.38
189 Staelens Karel 01:29:50 58.25
190 Meurisse Ricardo 01:29:54 58.18
191 Beckers Nico 01:30:07 57.97
192 Lampaert Laurent 01:30:14 57.86
193 Vandepitte Els 01:30:15 62.55
194 De Smet Frederik 01:30:41 57.41
195 Vaes Marc 01:30:51 57.25
196 Wauters Kristien 01:31:12 61.86
197 Declerck Sofie 01:31:30 61.64
198 Moins Sylvia 01:31:33 61.60
199 Van Gils Gertjan 01:31:36 56.51
200 Mathys Lynn 01:31:37 61.55
201 Meynen Jef 01:31:54 56.22
202 Sempels Frederik 01:32:15 55.88
203 Lambrechts Bernd 01:32:17 55.84
204 Comeyne Inge 01:32:29 60.92
205 Ureel Kaat 01:32:32 60.89
206 Dreesen Eric 01:32:34 55.57
207 De Vocht Godfried 01:32:43 55.42
208 Symons Kenneth 01:32:48 55.34
209 Lecoutere Katrijn 01:33:05 60.48
210 Hedebouw haike 01:33:48 59.96
211 Oeyen Merel 01:34:23 59.53
212 Coryn Steve 01:34:37 53.55
213 Jacobs Annemie 01:34:42 59.30
214 Cludts Alain 01:34:45 53.42
215 Schellens Els 01:34:49 59.22
216 Cavens Carlien 01:34:50 59.21
217 De Keersmaecker Filip 01:34:53 53.29
218 Coremans Sanne 01:34:59 59.10
219 Peleman Philippe 01:34:59 53.19
220 Van Esbroeck Femke 01:35:00 59.08
221 Parmentier Hugues 01:35:02 53.14
222 Vleminckx-huybens Tom 01:35:24 52.78
223 Kornas Freddy 01:36:21 51.85
224 Verbruggen Sofie 01:36:33 57.95
225 Van Autreve Boudewijn 01:36:40 51.54
226 Van De Perre Pieter 01:36:45 51.46
227 Van Der Perre Bruno 01:37:03 51.16
228 Goudeseune Arne 01:37:03 51.16
229 Van Den Eynde Detlev 01:37:03 51.16
230 Haegeman Wendy 01:37:30 57.26
231 Beys Michel 01:37:43 50.51
232 Leermakers Martine 01:37:47 57.05
233 De Weer Wim 01:38:01 50.21
234 Wouters Vaast 01:38:18 49.94
235 Augustijnen Carolien 01:38:55 56.22
236 Thonus Daviña 01:38:57 56.20
237 Geerts Kurt 01:38:57 49.30
238 Bervoets Erik 01:39:16 48.99
239 Lageot Dominique 01:39:36 48.66
240 Beullens Kevin 01:39:36 48.66
241 Goossens Sven 01:39:51 48.41
242 Soete De Boosere Saskia 01:40:47 54.86
243 Van Herck Sam 01:40:54 47.38
244 Vanneste Laura 01:41:22 54.44
245 Veldeman Nele 01:41:30 54.34
246 Derheeden Veerle 01:41:33 46.75
247 Antons Sofie 01:41:51 46.45
248 Van Eyken Koen 01:41:55 54.03
249 Van Riel Caroline 01:42:14 53.80
250 Vandoren Inde 01:42:31 53.60
251 Van Elewijck Nils 01:43:03 45.27
252 Laurent Anil 01:43:11 45.14
253 Vanbiervliet Valerie 01:43:32 52.85
254 Vannitsen Erik 01:44:05 44.26
255 Ongena Tim 01:44:49 43.54
256 Beckers Gaetan 01:45:05 43.28
257 Beer Jana 01:46:33 50.65
258 Dillon Karen 01:46:41 50.55
259 Peeters Limke 01:48:11 49.46
260 Schievers An 01:48:19 49.36
261 Geeraerts Annelies 01:48:19 49.36
262 Hassouni Khalil 01:50:00 37.95
263 Heymans Dominique 01:51:11 47.27
264 De Meester Caroline 01:56:27 43.42
265 Lamarque Carole 01:57:24 42.73
266 Sonck Klaartje 02:01:01 40.09
267 Vardar Leyla 02:03:33 37.74

Reacties

  • Nog geen reacties beschikbaar